Regional Weather Roundup
Issued by NWS

Home | Current Version | Previous Version | Graphics & Text | Print | Product List | Glossary Off
Versions: 1 2 3 4 5 6 7 8 9 10 11 12 13 14 15 16 17 18 19 20 21 22 23 24 25 26 27 28 29 30 31 32 33 34 35 36 37 38 39 40 41 42 43 44 45 46 47 48 49 50

668
ASUS43 KDMX 280306
RWRIA

WEATHER ROUNDUP FOR IOWA
NATIONAL WEATHER SERVICE DES MOINES IA
1000 PM CDT THU JUL 27 2017

NOTE: "FAIR" INDICATES FEW OR NO CLOUDS BELOW 12,000 FEET WITH NO
SIGNIFICANT WEATHER AND/OR OBSTRUCTIONS TO VISIBILITY.

* - THESE STATIONS ARE NOT NWS STATIONS...THUS NOT UNDER NWS
QUALITY CONTROL.  THEY ALSO DO NOT REPORT WEATHER SUCH
AS PRECIPITATION OR FOG.

IAZ001>003-012>014-020>022-031>034-043>046-280400-
   NORTHWEST IOWA

CITY           SKY/WX    TMP DP  RH WIND       PRES   REMARKS
CARROLL *      PTCLDY    70  68  94 N5        30.02R
CHEROKEE *     CLEAR     72  64  76 CALM      30.04R
DENISON *      PTCLDY    70  66  88 NE3       30.04R
ORANGE CITY *  CLEAR     73  63  68 NE3       30.06R
SHELDON *      CLEAR     66  63  88 NE3       30.05R
SIOUX CITY     CLEAR     76  62  62 NE6       30.03R
SPENCER        CLEAR     69  63  81 NE6       30.05R
STORM LAKE *   CLEAR     70  64  83 NE7       30.05R
$$

IAZ055>058-069>071-079>083-090>094-280400-
   SOUTHWEST IOWA

CITY           SKY/WX    TMP DP  RH WIND       PRES   REMARKS
ATLANTIC *       N/A     70  66  88 N3        30.01R
AUDUBON *      CLEAR     66  63  88 CALM      30.04R
CLARINDA *     CLEAR     70  66  88 N5        30.01R
COUNCIL BLFS * CLEAR     72  66  83 N5        30.02R
CRESTON *      CLEAR     72  59  64 NE8       30.02R
HARLAN  *      CLEAR     68  66  94 N5        30.06R
LAMONI         CLOUDY    75  63  66 NE9       29.99R
RED OAK *      CLEAR     68  66  94 N6        30.00S
SHENANDOAH *   CLEAR     72  66  83 NE5       30.00R
$$

IAZ047>049-059>061-072>074-084-280400-
   CENTRAL IOWA

CITY           SKY/WX    TMP DP  RH WIND       PRES   REMARKS
AMES           CLEAR     69  67  93 CALM      30.00R
ANKENY *       CLEAR     70  64  83 N5        30.01R
BOONE *        CLEAR     70  64  83 CALM      30.01R
CHARITON *     CLEAR     70  63  78 N6        29.98R
DES MOINES     PTCLDY    76  61  59 NE6       29.99R
GRINNELL*      CLEAR     70  61  72 NE7       30.01R
KNOXVILLE *    CLEAR     75  61  60 NE7       29.97R
MARSHALLTOWN   CLEAR     70  65  84 NE7       30.00R
NEWTON *       CLEAR     70  63  78 N7        30.00R
PELLA *        CLEAR     70  62  74 CALM      30.00R
PERRY *          N/A     69  67  94 N3        30.01R
$$

IAZ004>006-015-016-023>025-035-036-280400-
   NORTH CENTRAL IOWA

CITY           SKY/WX    TMP DP  RH WIND       PRES   REMARKS
ALGONA *       CLEAR     70  66  88 N5        30.04R
CLARION *      MOCLDY    70  70 100 NE6       30.02S
ESTHERVILLE    CLEAR     66  64  93 N5        30.04R
FORT DODGE *   MOCLDY    73  63  68 N5        30.03S
MASON CITY     CLEAR     67  64  90 CALM      30.05R
FOREST CITY *    N/A     68  64  88 N3        30.04R
IOWA FALLS *     N/A     71  66  85 CALM      30.03R
$$

IAZ007>011-017>019-026>030-037>042-050>054-066-280400-
   NORTHEAST IOWA

CITY           SKY/WX    TMP DP  RH WIND       PRES   REMARKS
CHARLES CITY * CLEAR     70  66  88 N5        30.02R
DECORAH *      CLEAR     72  64  78 N3        30.00R
DUBUQUE          N/A    N/A N/A N/A MISG      30.00R
MONTICELLO *   CLEAR     68  66  94 CALM      29.99R
OELWEIN *      CLEAR     72  66  83 CALM      30.01R
WATERLOO       CLEAR     71  64  78 CALM      29.99R
$$

IAZ064-065-067-068-078-280400-
   EAST CENTRAL IOWA

CITY           SKY/WX    TMP DP  RH WIND       PRES   REMARKS
DAVENPORT      CLEAR     70  65  84 NE7       29.98R
IOWA CITY      CLEAR     75  65  70 NE8       29.98R
MT. PLEASANT * CLEAR     71  68  90 N6        29.95S
MUSCATINE *    CLEAR     73  68  83 CALM      29.96R
QUAD CITIES    CLEAR     75  63  66 E7        29.95R
$$

IAZ062-063-075>077-085>089-095>099-280400-
   SOUTHEAST IOWA

CITY           SKY/WX    TMP DP  RH WIND       PRES   REMARKS
BURLINGTON     CLEAR     76  70  82 NE8       29.94R
FAIRFIELD *    CLEAR     70  64  83 N7        29.96R
FORT MADISON * PTCLDY    73  70  88 NE3       29.95R
KEOKUK *       PTCLDY    77  70  78 NE5       29.93R
OSKALOOSA *      N/A     70  63  78 N5        29.98R
CENTERVILLE *    N/A     72  63  73 CALM      29.99R
OTTUMWA        CLEAR     73  63  70 N6        29.96R
WASHINGTON *   CLEAR     70  68  94 N5        29.97R
$$

ABBREVIATIONS USED IN REMARKS
   TC - TEMPERATURES IN CELSIUS
  WCI - WIND CHILL INDEX
   HX - HEAT INDEX
  VSB - VISIBILITY
$$





USA.gov is the U.S. government's official web portal to all federal, state and local government web resources and services.